Starlink 6038

operational
NORAD ID: 56317 Int'l Des: 2023-058 Owner: SPXS Country: US Constellation: starlink
LEOCIRCULARRETROGRADESSO

关于 Starlink 6038

正在加载描述...

实时位置

正在加载3D地球...

即将过境

高度历史

Altitude vs Time

uPlot chart will show altitude changes over time

两行轨道根数

1 56317U 23058A 25303.93998772 .00000402 00000-0 32108-4 0 9991
2 56317 97.6035 303.3335 0002412 90.1309 270.0194 15.05649247138328
Epoch: Oct 30, 2025 • Age: 12 hours

当前状态

高度 573.6 km
速度 7.57 km/s
星下点 -58.67°S, 110.59°E
发射日期 Apr 27, 2023
运行时间 2.5 years
类型 internet

技术详情

分类 Payload
质量 300.00 kg
干质量 260.00 kg
总质量 300.00 kg
长度 0.20 m
直径 2.80 m
跨度 9.00 m
形状 Box + pan
制造商 SPXS
平台类型 Starlink
阶段状态 In Orbit
所有者/国家 SPXS/US

大型星座

Loading constellations...